Find Starlink 35441

NORAD ID: 65869 Int'l Des: 2025-223 Owner: SPXS Country: US Constellation: starlink operational
LEOCIRCULAR

Current View

Loading 3D Globe...

About Starlink 35441

Description loading...

Upcoming Passes

Passes for default location (London). Set your location on the main map for personalized predictions.

Altitude History

Loading altitude history...

Two-Line Element Set

1 65869U 25223R 26151.47241970 .00029360 00000-0 87627-3 0 9990
2 65869 53.1597 269.4063 0001470 99.1534 260.9635 15.34414815 36881
Epoch: May 31, 2026 • Age: 12 hours

Current Status

Altitude 468.6 km
Velocity 7.63 km/s
Sub-Earth Point -20.63°S, 133.68°W
Launch Date Oct 3, 2025
Age 0.6 years
Type internet

Technical Details

Classification Payload
Mass 575.00 kg
Dry Mass 530.00 kg
Total Mass 575.00 kg
Length 0.30 m
Diameter 4.10 m
Span 29.00 m
Shape Box + pan
Manufacturer SPXS
Bus Type Starlink V2MO
Phase Status In Orbit
Owner/State SPXS/US

Most Searched